Zurück zum Katalog

SL-12 R/B

AUX MOTOR

AktivHEO
NORAD 16445·ROCKET BODY·🇷🇺 Russia

Gestartet Dec 24, 1985 von Baikonur Cosmodrome

Loading…

Nächste Überflüge (nächste 24 Stunden)

TLE

AktuellSource: Space-Track

Epoche: Sep 13, 2026, 17:29 UTC

1 16445U 85118K   26256.72890691  .00002538  00000-0  11444-2 0  9990
2 16445  64.7103 152.9146 5801074 357.8888   0.5264  4.28711592625383

Verfolge SL-12 R/B in Echtzeit mit AllMySat

Download on the App Store